| time (UTC) | temp F | wind direction | speed knots | gust knots | rain 1hr in | rain 24hr in | rain mn in | humidity % | barometer mb |
| 20260507223531 | 72 | 194 | 5.2 | 6.1 | 0.00 | 0.00 | 0.00 | 31 | 4458.1 |
| 20260507223028 | 71 | 128 | 6.1 | 8.7 | 0.00 | 0.00 | 0.00 | 31 | 4458.1 |
| 20260507222525 | 70 | 147 | 7.0 | 8.7 | 0.00 | 0.00 | 0.00 | 31 | 4458.4 |
| 20260507222021 | 70 | 176 | 4.3 | 6.1 | 0.00 | 0.00 | 0.00 | 35 | 4458.4 |
| 20260507221518 | 71 | 174 | 4.3 | 6.1 | 0.00 | 0.00 | 0.00 | 33 | 4458.4 |
| 20260507221015 | 72 | 143 | 3.5 | 4.3 | 0.00 | 0.00 | 0.00 | 31 | 4458.4 |
| 20260507220512 | 71 | 181 | 3.5 | 4.3 | 0.00 | 0.00 | 0.00 | 33 | 4458.7 |
| 20260507220009 | 70 | 141 | 4.3 | 7.8 | 0.00 | 0.00 | 0.00 | 33 | 4458.7 |
| 20260507215505 | 69 | 197 | 1.7 | 1.7 | 0.00 | 0.00 | 0.00 | 33 | 4458.7 |
| 20260507215003 | 71 | 157 | 5.2 | 6.1 | 0.00 | 0.00 | 0.00 | 31 | 4458.4 |
| 20260507214500 | 71 | 155 | 4.3 | 7.8 | 0.00 | 0.00 | 0.00 | 33 | 4458.7 |
| 20260507213955 | 71 | 148 | 5.2 | 6.1 | 0.00 | 0.00 | 0.00 | 33 | 4458.7 |
| 20260507213452 | 71 | 141 | 4.3 | 7.8 | 0.00 | 0.00 | 0.00 | 31 | 4458.7 |
| 20260507212949 | 71 | 155 | 6.1 | 8.7 | 0.00 | 0.00 | 0.00 | 32 | 4458.7 |
| 20260507212445 | 70 | 180 | 0.0 | 1.7 | 0.00 | 0.00 | 0.00 | 32 | 4458.7 |
| 20260507211942 | 70 | 165 | 1.7 | 2.6 | 0.00 | 0.00 | 0.00 | 33 | 4458.7 |
| 20260507211438 | 71 | 218 | 2.6 | 2.6 | 0.00 | 0.00 | 0.00 | 32 | 4458.7 |
| 20260507210935 | 71 | 189 | 3.5 | 7.8 | 0.00 | 0.00 | 0.00 | 34 | 4458.7 |
| 20260507210432 | 70 | 151 | 2.6 | 4.3 | 0.00 | 0.00 | 0.00 | 33 | 4459.2 |
| 20260507205929 | 70 | 134 | 4.3 | 7.8 | 0.00 | 0.00 | 0.00 | 32 | 4459.2 |
| 20260507205426 | 70 | 137 | 4.3 | 4.3 | 0.00 | 0.00 | 0.00 | 34 | 4459.2 |
| 20260507204922 | 70 | 144 | 8.7 | 8.7 | 0.00 | 0.00 | 0.00 | 33 | 4459.2 |
| 20260507204418 | 70 | 189 | 4.3 | 6.1 | 0.00 | 0.00 | 0.00 | 35 | 4459.2 |
| 20260507203916 | 70 | 163 | 12.2 | 13.0 | 0.00 | 0.00 | 0.00 | 32 | 4459.2 |
| 20260507203414 | 70 | 138 | 4.3 | 6.1 | 0.00 | 0.00 | 0.00 | 35 | 4459.2 |
| 20260507202910 | 70 | 141 | 7.8 | 10.4 | 0.00 | 0.00 | 0.00 | 34 | 4459.2 |
| 20260507202407 | 70 | 194 | 3.5 | 4.3 | 0.00 | 0.00 | 0.00 | 35 | 4459.2 |
| 20260507201902 | 69 | 185 | 4.3 | 6.1 | 0.00 | 0.00 | 0.00 | 34 | 4459.2 |
| 20260507201358 | 70 | 145 | 7.8 | 10.4 | 0.00 | 0.00 | 0.00 | 34 | 4459.2 |
| 20260507200854 | 70 | 172 | 5.2 | 6.1 | 0.00 | 0.00 | 0.00 | 32 | 4459.2 |
| 20260507200351 | 69 | 174 | 2.6 | 4.3 | 0.00 | 0.00 | 0.00 | 34 | 4459.2 |
| 20260507195847 | 68 | 108 | 6.1 | 7.8 | 0.00 | 0.00 | 0.00 | 35 | 4459.5 |
| 20260507195344 | 68 | 86 | 3.5 | 6.1 | 0.00 | 0.00 | 0.00 | 37 | 4459.5 |
| 20260507194841 | 67 | 151 | 7.0 | 12.2 | 0.00 | 0.00 | 0.00 | 34 | 4459.5 |
| 20260507194338 | 68 | 165 | 5.2 | 6.1 | 0.00 | 0.00 | 0.00 | 35 | 4459.5 |
| 20260507193834 | 68 | 222 | 0.9 | 1.7 | 0.00 | 0.00 | 0.00 | 35 | 4459.5 |
| 20260507193332 | 67 | 200 | 0.9 | 2.6 | 0.00 | 0.00 | 0.00 | 38 | 4459.5 |
| 20260507192827 | 68 | 149 | 4.3 | 12.2 | 0.00 | 0.00 | 0.00 | 35 | 4459.5 |
| 20260507192324 | 68 | 163 | 5.2 | 6.1 | 0.00 | 0.00 | 0.00 | 38 | 4459.5 |
| 20260507191821 | 66 | 153 | 5.2 | 7.8 | 0.00 | 0.00 | 0.00 | 36 | 4459.5 |
| 20260507191317 | 67 | 188 | 3.5 | 4.3 | 0.00 | 0.00 | 0.00 | 38 | 4459.5 |
| 20260507190814 | 67 | 189 | 1.7 | 2.6 | 0.00 | 0.00 | 0.00 | 38 | 4459.5 |
| 20260507190312 | 69 | 182 | 4.3 | 6.1 | 0.00 | 0.00 | 0.00 | 34 | 4459.5 |
| 20260507185811 | 69 | 139 | 4.3 | 4.3 | 0.00 | 0.00 | 0.00 | 38 | 4459.9 |
| 20260507185307 | 69 | 169 | 3.5 | 6.1 | 0.00 | 0.00 | 0.00 | 39 | 4459.9 |
| 20260507184805 | 68 | 150 | 1.7 | 2.6 | 0.00 | 0.00 | 0.00 | 36 | 4459.5 |
| 20260507184303 | 67 | 135 | 5.2 | 6.1 | 0.00 | 0.00 | 0.00 | 38 | 4459.9 |
| 20260507183759 | 67 | 155 | 2.6 | 2.6 | 0.00 | 0.00 | 0.00 | 39 | 4459.9 |
| 20260507183256 | 67 | 159 | 5.2 | 6.1 | 0.00 | 0.00 | 0.00 | 37 | 4459.9 |
| 20260507182754 | 67 | 220 | 2.6 | 4.3 | 0.00 | 0.00 | 0.00 | 38 | 4459.9 |
| 20260507182248 | 67 | 176 | 4.3 | 7.8 | 0.00 | 0.00 | 0.00 | 37 | 4459.9 |
| 20260507181745 | 67 | 217 | 4.3 | 6.1 | 0.00 | 0.00 | 0.00 | 39 | 4459.5 |
| 20260507181242 | 66 | 164 | 2.6 | 4.3 | 0.00 | 0.00 | 0.00 | 37 | 4459.9 |
| 20260507180738 | 65 | 230 | 2.6 | 2.6 | 0.00 | 0.00 | 0.00 | 39 | 4459.9 |
| 20260507180235 | 67 | 177 | 5.2 | 7.8 | 0.00 | 0.00 | 0.00 | 39 | 4459.9 |
| 20260507175731 | 66 | 156 | 0.9 | 1.7 | 0.00 | 0.00 | 0.00 | 37 | 4459.9 |
| 20260507175228 | 66 | 213 | 2.6 | 2.6 | 0.00 | 0.00 | 0.00 | 39 | 4460.2 |
| 20260507174725 | 64 | 174 | 4.3 | 6.1 | 0.00 | 0.00 | 0.00 | 38 | 4459.9 |
| 20260507174223 | 64 | 153 | 5.2 | 6.1 | 0.00 | 0.00 | 0.00 | 40 | 4459.9 |
| 20260507173720 | 66 | 131 | 6.1 | 7.8 | 0.00 | 0.00 | 0.00 | 38 | 4460.2 |
| 20260507173217 | 66 | 186 | 3.5 | 7.8 | 0.00 | 0.00 | 0.00 | 38 | 4460.2 |
| 20260507172714 | 66 | 161 | 5.2 | 6.1 | 0.00 | 0.00 | 0.00 | 37 | 4460.2 |
| 20260507172211 | 66 | 223 | 0.9 | 1.7 | 0.00 | 0.00 | 0.00 | 37 | 4460.2 |
| 20260507171710 | 65 | 147 | 1.7 | 1.7 | 0.00 | 0.00 | 0.00 | 42 | 4460.2 |
| 20260507171208 | 65 | 185 | 2.6 | 2.6 | 0.00 | 0.00 | 0.00 | 40 | 4460.5 |
| 20260507170705 | 65 | 201 | 0.0 | 1.7 | 0.00 | 0.00 | 0.00 | 40 | 4460.5 |
| 20260507170202 | 64 | 224 | 0.0 | 1.7 | 0.00 | 0.00 | 0.00 | 40 | 4460.5 |
| 20260507165658 | 63 | 208 | 2.6 | 2.6 | 0.00 | 0.00 | 0.00 | 48 | 4460.5 |
| 20260507165154 | 62 | 270 | 1.7 | 1.7 | 0.00 | 0.00 | 0.00 | 43 | 4460.5 |
| 20260507164650 | 62 | 176 | 3.5 | 6.1 | 0.00 | 0.00 | 0.00 | 44 | 4461.0 |
| 20260507164147 | 62 | 214 | 1.7 | 1.7 | 0.00 | 0.00 | 0.00 | 47 | 4461.0 |
| 20260507163644 | 62 | 244 | 7.0 | 12.2 | 0.00 | 0.00 | 0.00 | 44 | 4460.5 |
| 20260507163142 | 62 | 205 | 7.8 | 12.2 | 0.00 | 0.00 | 0.00 | 44 | 4460.5 |
| 20260507162638 | 61 | 213 | 3.5 | 6.1 | 0.00 | 0.00 | 0.00 | 45 | 4460.5 |
| 20260507162134 | 61 | 225 | 7.8 | 8.7 | 0.00 | 0.00 | 0.00 | 46 | 4460.5 |
| 20260507161630 | 61 | 221 | 6.1 | 6.1 | 0.00 | 0.00 | 0.00 | 47 | 4461.0 |
| 20260507161127 | 60 | 235 | 4.3 | 6.1 | 0.00 | 0.00 | 0.00 | 49 | 4460.5 |
| 20260507160623 | 60 | 217 | 6.1 | 7.8 | 0.00 | 0.00 | 0.00 | 47 | 4461.0 |
| 20260507160120 | 60 | 210 | 5.2 | 6.1 | 0.00 | 0.00 | 0.00 | 48 | 4461.0 |
| 20260507155615 | 59 | 211 | 4.3 | 4.3 | 0.00 | 0.00 | 0.00 | 49 | 4461.0 |
| 20260507155113 | 59 | 223 | 3.5 | 4.3 | 0.00 | 0.00 | 0.00 | 48 | 4460.5 |
| 20260507154609 | 59 | 236 | 3.5 | 4.3 | 0.00 | 0.00 | 0.00 | 57 | 4461.0 |
| 20260507154107 | 57 | 214 | 1.7 | 2.6 | 0.00 | 0.00 | 0.00 | 58 | 4461.0 |
| 20260507153603 | 57 | 202 | 0.0 | 1.7 | 0.00 | 0.00 | 0.00 | 63 | 4461.0 |
| 20260507153100 | 57 | 184 | 1.7 | 2.6 | 0.00 | 0.00 | 0.00 | 65 | 4461.0 |
| 20260507152556 | 57 | 240 | 0.0 | 0.0 | 0.00 | 0.00 | 0.00 | 65 | 4461.0 |
| 20260507152052 | 57 | 241 | 0.9 | 1.7 | 0.00 | 0.00 | 0.00 | 63 | 4461.0 |
| 20260507151548 | 55 | 240 | 0.0 | 0.0 | 0.00 | 0.00 | 0.00 | 68 | 4461.0 |
| 20260507151045 | 54 | 239 | 0.9 | 1.7 | 0.00 | 0.00 | 0.00 | 67 | 4461.0 |
| 20260507150543 | 54 | 239 | 0.0 | 0.0 | 0.00 | 0.00 | 0.00 | 71 | 4461.0 |
| 20260507150039 | 53 | 291 | 0.0 | 0.0 | 0.00 | 0.00 | 0.00 | 72 | 4461.0 |
| 20260507145534 | 53 | 291 | 0.0 | 0.0 | 0.00 | 0.00 | 0.00 | 72 | 4461.0 |
| 20260507145032 | 52 | 291 | 0.9 | 1.7 | 0.00 | 0.00 | 0.00 | 71 | 4461.0 |
| 20260507144529 | 52 | 291 | 0.0 | 1.7 | 0.00 | 0.00 | 0.00 | 72 | 4461.0 |
| 20260507144026 | 51 | 291 | 0.0 | 0.0 | 0.00 | 0.00 | 0.00 | 74 | 4460.5 |
| 20260507143523 | 51 | 291 | 0.0 | 0.0 | 0.00 | 0.00 | 0.00 | 74 | 4461.0 |
| 20260507143021 | 50 | 291 | 0.0 | 0.0 | 0.00 | 0.00 | 0.00 | 74 | 4460.5 |
| 20260507142515 | 50 | 291 | 0.0 | 0.0 | 0.00 | 0.00 | 0.00 | 75 | 4460.5 |
| 20260507142013 | 50 | 291 | 0.0 | 0.0 | 0.00 | 0.00 | 0.00 | 77 | 4460.5 |
| 20260507141509 | 49 | 291 | 0.0 | 0.0 | 0.00 | 0.00 | 0.00 | 78 | 4460.5 |
| 20260507141007 | 49 | 286 | 1.7 | 1.7 | 0.00 | 0.00 | 0.00 | 79 | 4460.5 |
| 20260507140502 | 49 | 232 | 0.0 | 1.7 | 0.00 | 0.00 | 0.00 | 81 | 4460.5 |
| 20260507140000 | 49 | 232 | 0.0 | 0.0 | 0.00 | 0.00 | 0.00 | 81 | 4460.2 |
| 20260507135456 | 49 | 232 | 0.0 | 0.0 | 0.00 | 0.00 | 0.00 | 81 | 4460.2 |
| 20260507134953 | 48 | 232 | 0.9 | 1.7 | 0.00 | 0.00 | 0.00 | 81 | 4460.2 |
| 20260507134450 | 47 | 231 | 0.0 | 0.0 | 0.00 | 0.00 | 0.00 | 83 | 4459.9 |
| 20260507133946 | 47 | 231 | 1.7 | 1.7 | 0.00 | 0.00 | 0.00 | 83 | 4460.2 |
| 20260507133442 | 47 | 231 | 0.0 | 0.0 | 0.00 | 0.00 | 0.00 | 82 | 4459.9 |
| 20260507132941 | 46 | 231 | 0.0 | 0.0 | 0.00 | 0.00 | 0.00 | 83 | 4459.9 |
| 20260507132437 | 45 | 231 | 0.9 | 1.7 | 0.00 | 0.00 | 0.00 | 83 | 4459.9 |
| 20260507131933 | 44 | 230 | 0.0 | 0.0 | 0.00 | 0.00 | 0.00 | 86 | 4459.9 |
| 20260507131430 | 44 | 230 | 0.0 | 0.0 | 0.00 | 0.00 | 0.00 | 87 | 4459.9 |
| 20260507130927 | 43 | 230 | 2.6 | 2.6 | 0.00 | 0.00 | 0.00 | 87 | 4459.9 |
| 20260507130425 | 44 | 238 | 1.7 | 1.7 | 0.00 | 0.00 | 0.00 | 87 | 4459.9 |
| 20260507125923 | 44 | 231 | 0.9 | 1.7 | 0.00 | 0.00 | 0.00 | 87 | 4459.9 |
| 20260507125421 | 44 | 280 | 0.0 | 0.0 | 0.00 | 0.00 | 0.00 | 90 | 4459.9 |
| 20260507124918 | 44 | 281 | 0.0 | 0.0 | 0.00 | 0.00 | 0.00 | 90 | 4459.9 |
| 20260507124414 | 43 | 281 | 0.9 | 1.7 | 0.00 | 0.00 | 0.00 | 90 | 4459.5 |
| 20260507123913 | 43 | 274 | 1.7 | 1.7 | 0.00 | 0.00 | 0.00 | 90 | 4459.9 |
| 20260507123409 | 44 | 144 | 0.9 | 1.7 | 0.00 | 0.00 | 0.00 | 91 | 4459.9 |
| 20260507122906 | 43 | 211 | 0.0 | 0.0 | 0.00 | 0.00 | 0.00 | 91 | 4459.5 |
| 20260507122401 | 43 | 211 | 0.0 | 0.0 | 0.00 | 0.00 | 0.00 | 91 | 4459.5 |
| 20260507121858 | 43 | 210 | 1.7 | 2.6 | 0.00 | 0.00 | 0.00 | 90 | 4459.5 |
| 20260507121353 | 43 | 224 | 0.0 | 0.0 | 0.00 | 0.00 | 0.00 | 87 | 4459.5 |
| 20260507120850 | 43 | 245 | 0.9 | 1.7 | 0.00 | 0.00 | 0.00 | 87 | 4459.5 |
| 20260507120346 | 44 | 244 | 0.0 | 1.7 | 0.00 | 0.00 | 0.00 | 87 | 4459.2 |
| 20260507115842 | 44 | 253 | 1.7 | 2.6 | 0.00 | 0.00 | 0.00 | 87 | 4459.5 |
| 20260507115338 | 44 | 276 | 1.7 | 2.6 | 0.00 | 0.00 | 0.00 | 87 | 4459.2 |
| 20260507114834 | 44 | 257 | 0.0 | 0.0 | 0.00 | 0.00 | 0.00 | 86 | 4459.2 |
| 20260507114331 | 45 | 286 | 0.0 | 0.0 | 0.00 | 0.00 | 0.00 | 87 | 4459.2 |
| 20260507113829 | 45 | 284 | 2.6 | 2.6 | 0.00 | 0.00 | 0.00 | 88 | 4459.2 |
| 20260507113326 | 44 | 275 | 0.0 | 1.7 | 0.00 | 0.00 | 0.00 | 88 | 4459.2 |
| 20260507112823 | 44 | 226 | 0.0 | 1.7 | 0.00 | 0.00 | 0.00 | 88 | 4459.5 |
| 20260507112320 | 44 | 15 | 1.7 | 1.7 | 0.00 | 0.00 | 0.00 | 88 | 4459.5 |
| 20260507111818 | 44 | 131 | 0.0 | 0.0 | 0.00 | 0.00 | 0.00 | 88 | 4459.2 |
| 20260507111314 | 45 | 135 | 2.6 | 2.6 | 0.00 | 0.00 | 0.00 | 87 | 4459.2 |
| 20260507110810 | 44 | 227 | 0.0 | 0.0 | 0.00 | 0.00 | 0.00 | 87 | 4459.2 |
| 20260507110307 | 44 | 238 | 0.0 | 1.7 | 0.00 | 0.00 | 0.00 | 87 | 4459.2 |
| 20260507105804 | 44 | 270 | 1.7 | 2.6 | 0.00 | 0.00 | 0.00 | 88 | 4458.7 |
| 20260507105300 | 44 | 227 | 0.0 | 0.0 | 0.00 | 0.00 | 0.00 | 87 | 4459.2 |
| 20260507104757 | 45 | 238 | 0.0 | 1.7 | 0.00 | 0.00 | 0.00 | 85 | 4458.7 |
| 20260507104254 | 45 | 238 | 0.0 | 0.0 | 0.00 | 0.00 | 0.00 | 87 | 4458.7 |
| 20260507103750 | 45 | 238 | 0.0 | 0.0 | 0.00 | 0.00 | 0.00 | 87 | 4458.7 |
| 20260507103246 | 45 | 238 | 0.0 | 0.0 | 0.00 | 0.00 | 0.00 | 87 | 4458.7 |
| 20260507102742 | 46 | 238 | 0.0 | 0.0 | 0.00 | 0.00 | 0.00 | 85 | 4458.7 |
| 20260507102234 | 45 | 238 | 0.0 | 0.0 | 0.00 | 0.00 | 0.00 | 87 | 4458.7 |
| 20260507101730 | 46 | 238 | 0.0 | 0.0 | 0.00 | 0.00 | 0.00 | 86 | 4458.4 |
| 20260507101225 | 46 | 238 | 0.0 | 0.0 | 0.00 | 0.00 | 0.00 | 84 | 4458.4 |
| 20260507100722 | 45 | 238 | 0.0 | 0.0 | 0.00 | 0.00 | 0.00 | 84 | 4458.4 |
| 20260507100221 | 46 | 238 | 0.0 | 0.0 | 0.00 | 0.00 | 0.00 | 84 | 4458.4 |
| 20260507095718 | 46 | 249 | 0.0 | 0.0 | 0.00 | 0.00 | 0.00 | 83 | 4458.4 |
| 20260507095215 | 47 | 253 | 0.0 | 1.7 | 0.00 | 0.00 | 0.00 | 83 | 4458.4 |
| 20260507094712 | 47 | 236 | 2.6 | 2.6 | 0.00 | 0.00 | 0.00 | 83 | 4458.1 |
| 20260507094209 | 48 | 236 | 0.9 | 1.7 | 0.00 | 0.00 | 0.00 | 84 | 4458.1 |
| 20260507093705 | 48 | 236 | 0.0 | 0.0 | 0.00 | 0.00 | 0.00 | 85 | 4458.4 |
| 20260507093204 | 48 | 236 | 0.0 | 0.0 | 0.00 | 0.00 | 0.00 | 84 | 4458.1 |
| 20260507092701 | 48 | 236 | 0.0 | 0.0 | 0.00 | 0.00 | 0.00 | 84 | 4458.1 |
| 20260507092157 | 49 | 236 | 0.0 | 0.0 | 0.00 | 0.00 | 0.00 | 80 | 4458.1 |
| 20260507091654 | 49 | 236 | 0.0 | 0.0 | 0.00 | 0.00 | 0.00 | 78 | 4458.1 |
| 20260507091150 | 50 | 236 | 0.0 | 0.0 | 0.00 | 0.00 | 0.00 | 77 | 4458.1 |
| 20260507090646 | 51 | 236 | 0.9 | 1.7 | 0.00 | 0.00 | 0.00 | 75 | 4458.1 |
| 20260507090143 | 51 | 236 | 0.0 | 0.0 | 0.00 | 0.00 | 0.00 | 74 | 4458.1 |
| 20260507085640 | 50 | 236 | 0.0 | 0.0 | 0.00 | 0.00 | 0.00 | 75 | 4457.7 |
| 20260507085137 | 50 | 236 | 0.0 | 0.0 | 0.00 | 0.00 | 0.00 | 76 | 4457.7 |
| 20260507084634 | 51 | 236 | 0.0 | 0.0 | 0.00 | 0.00 | 0.00 | 75 | 4458.1 |
| 20260507084130 | 51 | 236 | 0.0 | 0.0 | 0.00 | 0.00 | 0.00 | 74 | 4457.7 |
| 20260507083627 | 52 | 236 | 0.0 | 0.0 | 0.00 | 0.00 | 0.00 | 73 | 4458.1 |
| 20260507083124 | 53 | 236 | 0.0 | 0.0 | 0.00 | 0.00 | 0.00 | 72 | 4458.1 |
| 20260507082620 | 53 | 236 | 1.7 | 1.7 | 0.00 | 0.00 | 0.00 | 72 | 4458.1 |
| 20260507082116 | 55 | 233 | 0.0 | 1.7 | 0.00 | 0.00 | 0.00 | 70 | 4458.1 |
| 20260507081613 | 55 | 234 | 0.0 | 0.0 | 0.00 | 0.00 | 0.00 | 68 | 4458.1 |
| 20260507081110 | 56 | 256 | 0.0 | 0.0 | 0.00 | 0.00 | 0.00 | 65 | 4458.1 |
| 20260507080606 | 56 | 256 | 0.0 | 0.0 | 0.00 | 0.00 | 0.00 | 63 | 4458.1 |
| 20260507075557 | 59 | 239 | 0.0 | 0.0 | 0.00 | 0.00 | 0.00 | 60 | 4458.1 |
| 20260507075054 | 61 | 223 | 0.0 | 1.7 | 0.00 | 0.00 | 0.00 | 51 | 4457.7 |
| 20260507074551 | 61 | 224 | 0.9 | 1.7 | 0.00 | 0.00 | 0.00 | 51 | 4458.1 |
| 20260507074049 | 61 | 220 | 2.6 | 2.6 | 0.00 | 0.00 | 0.00 | 50 | 4458.1 |
| 20260507073545 | 60 | 213 | 4.3 | 6.1 | 0.00 | 0.00 | 0.00 | 51 | 4458.1 |
| 20260507073042 | 59 | 219 | 3.5 | 4.3 | 0.00 | 0.00 | 0.00 | 55 | 4457.7 |
| 20260507072539 | 59 | 229 | 2.6 | 2.6 | 0.00 | 0.00 | 0.00 | 57 | 4457.7 |
| 20260507072036 | 59 | 234 | 0.9 | 2.6 | 0.00 | 0.00 | 0.00 | 58 | 4458.1 |
| 20260507071534 | 59 | 220 | 4.3 | 6.1 | 0.00 | 0.00 | 0.00 | 56 | 4458.1 |
| 20260507071030 | 59 | 222 | 1.7 | 2.6 | 0.00 | 0.00 | 0.00 | 55 | 4458.1 |
| 20260507070527 | 59 | 225 | 1.7 | 1.7 | 0.00 | 0.00 | 0.00 | 55 | 4457.7 |
| 20260507070024 | 59 | 225 | 1.7 | 1.7 | 0.00 | 0.00 | 0.00 | 59 | 4457.7 |
| 20260507065520 | 59 | 225 | 2.6 | 2.6 | 0.00 | 0.00 | 0.00 | 58 | 4457.7 |
| 20260507065018 | 59 | 225 | 2.6 | 2.6 | 0.00 | 0.00 | 0.00 | 58 | 4457.7 |
| 20260507064516 | 60 | 224 | 2.6 | 2.6 | 0.00 | 0.00 | 0.00 | 54 | 4457.7 |
| 20260507064014 | 61 | 214 | 3.5 | 4.3 | 0.00 | 0.00 | 0.00 | 52 | 4457.7 |
| 20260507063510 | 62 | 214 | 3.5 | 4.3 | 0.00 | 0.00 | 0.00 | 49 | 4457.7 |
| 20260507063008 | 62 | 214 | 2.6 | 2.6 | 0.00 | 0.00 | 0.00 | 48 | 4457.7 |
| 20260507062504 | 62 | 215 | 0.9 | 1.7 | 0.00 | 0.00 | 0.00 | 49 | 4457.7 |
| 20260507062002 | 62 | 216 | 1.7 | 2.6 | 0.00 | 0.00 | 0.00 | 48 | 4457.7 |
| 20260507061459 | 62 | 218 | 1.7 | 1.7 | 0.00 | 0.00 | 0.00 | 49 | 4458.1 |
| 20260507060958 | 62 | 220 | 1.7 | 1.7 | 0.00 | 0.00 | 0.00 | 50 | 4458.1 |
| 20260507060455 | 62 | 226 | 1.7 | 1.7 | 0.00 | 0.00 | 0.00 | 49 | 4457.7 |
| 20260507055951 | 61 | 219 | 0.0 | 1.7 | 0.00 | 0.00 | 0.00 | 51 | 4457.7 |
| 20260507055446 | 61 | 232 | 1.7 | 2.6 | 0.00 | 0.00 | 0.00 | 51 | 4457.7 |
| 20260507054943 | 62 | 245 | 2.6 | 2.6 | 0.00 | 0.00 | 0.00 | 51 | 4457.7 |
| 20260507054439 | 63 | 211 | 0.0 | 1.7 | 0.00 | 0.00 | 0.00 | 47 | 4457.7 |
| 20260507053937 | 64 | 252 | 3.5 | 4.3 | 0.00 | 0.00 | 0.00 | 47 | 4457.7 |
| 20260507053434 | 64 | 206 | 2.6 | 4.3 | 0.00 | 0.00 | 0.00 | 46 | 4457.7 |
| 20260507052932 | 64 | 219 | 4.3 | 4.3 | 0.00 | 0.00 | 0.00 | 45 | 4457.7 |
| 20260507052430 | 64 | 221 | 4.3 | 6.1 | 0.00 | 0.00 | 0.00 | 44 | 4457.7 |
| 20260507051927 | 64 | 181 | 6.1 | 8.7 | 0.00 | 0.00 | 0.00 | 44 | 4457.7 |
| 20260507051424 | 64 | 148 | 2.6 | 2.6 | 0.00 | 0.00 | 0.00 | 45 | 4457.3 |
| 20260507050921 | 64 | 171 | 4.3 | 4.3 | 0.00 | 0.00 | 0.00 | 44 | 4457.3 |
| 20260507050418 | 63 | 179 | 3.5 | 4.3 | 0.00 | 0.00 | 0.00 | 46 | 4457.7 |
| 20260507045915 | 64 | 173 | 2.6 | 4.3 | 0.00 | 0.00 | 0.00 | 46 | 4457.7 |
| 20260507045411 | 62 | 191 | 1.7 | 2.6 | 0.00 | 0.00 | 0.00 | 47 | 4457.3 |
| 20260507044908 | 62 | 198 | 0.9 | 1.7 | 0.00 | 0.00 | 0.00 | 50 | 4457.3 |
| 20260507044405 | 62 | 203 | 1.7 | 2.6 | 0.00 | 0.00 | 0.00 | 46 | 4457.7 |
| 20260507043901 | 62 | 192 | 1.7 | 2.6 | 0.00 | 0.00 | 0.00 | 48 | 4457.7 |
| 20260507043357 | 62 | 217 | 0.9 | 1.7 | 0.00 | 0.00 | 0.00 | 49 | 4457.3 |
| 20260507042854 | 62 | 217 | 0.9 | 1.7 | 0.00 | 0.00 | 0.00 | 48 | 4457.3 |
| 20260507042350 | 62 | 223 | 0.9 | 1.7 | 0.00 | 0.00 | 0.00 | 50 | 4457.3 |
| 20260507041846 | 62 | 223 | 0.0 | 0.0 | 0.00 | 0.00 | 0.00 | 49 | 4457.3 |
| 20260507041343 | 61 | 227 | 2.6 | 2.6 | 0.00 | 0.00 | 0.00 | 49 | 4457.3 |
| 20260507040841 | 61 | 202 | 0.9 | 1.7 | 0.00 | 0.00 | 0.00 | 52 | 4457.7 |
| 20260507040336 | 60 | 224 | 0.0 | 0.0 | 0.00 | 0.00 | 0.00 | 55 | 4457.0 |
| 20260507035833 | 58 | 226 | 1.7 | 1.7 | 0.00 | 0.00 | 0.00 | 59 | 4457.3 |
| 20260507035328 | 57 | 239 | 0.0 | 0.0 | 0.00 | 0.00 | 0.00 | 74 | 4457.3 |
| 20260507034826 | 57 | 258 | 1.7 | 2.6 | 0.00 | 0.00 | 0.00 | 76 | 4457.3 |
| 20260507034323 | 57 | 267 | 0.9 | 1.7 | 0.00 | 0.00 | 0.00 | 78 | 4457.3 |
| 20260507033821 | 58 | 267 | 0.0 | 0.0 | 0.00 | 0.00 | 0.00 | 78 | 4457.0 |
| 20260507033319 | 58 | 266 | 0.0 | 0.0 | 0.00 | 0.00 | 0.00 | 78 | 4457.3 |
| 20260507032815 | 58 | 266 | 0.9 | 1.7 | 0.00 | 0.00 | 0.00 | 77 | 4457.0 |
| 20260507032311 | 57 | 266 | 0.0 | 0.0 | 0.00 | 0.00 | 0.00 | 78 | 4457.0 |
| 20260507031808 | 57 | 267 | 0.0 | 1.7 | 0.00 | 0.00 | 0.00 | 78 | 4457.3 |
| 20260507031305 | 57 | 264 | 0.0 | 0.0 | 0.00 | 0.00 | 0.00 | 78 | 4457.0 |
| 20260507030801 | 57 | 279 | 0.0 | 1.7 | 0.00 | 0.00 | 0.00 | 78 | 4457.0 |
| 20260507030259 | 58 | 203 | 0.0 | 0.0 | 0.00 | 0.00 | 0.00 | 78 | 4457.0 |
| 20260507025756 | 58 | 201 | 0.9 | 1.7 | 0.00 | 0.00 | 0.00 | 78 | 4457.0 |
| 20260507025253 | 59 | 201 | 0.0 | 0.0 | 0.00 | 0.00 | 0.00 | 78 | 4457.0 |
| 20260507024751 | 59 | 202 | 1.7 | 1.7 | 0.00 | 0.00 | 0.00 | 77 | 4456.6 |
| 20260507024248 | 59 | 202 | 0.0 | 0.0 | 0.00 | 0.00 | 0.00 | 77 | 4456.6 |
| 20260507023743 | 59 | 202 | 0.0 | 0.0 | 0.00 | 0.00 | 0.00 | 76 | 4457.0 |
| 20260507023240 | 60 | 202 | 0.0 | 0.0 | 0.00 | 0.00 | 0.00 | 76 | 4457.0 |
| 20260507022738 | 59 | 202 | 0.0 | 0.0 | 0.00 | 0.00 | 0.00 | 76 | 4456.6 |
| 20260507022234 | 60 | 213 | 1.7 | 2.6 | 0.00 | 0.00 | 0.00 | 74 | 4456.6 |
| 20260507021730 | 61 | 246 | 0.0 | 1.7 | 0.00 | 0.00 | 0.00 | 75 | 4456.6 |
| 20260507021226 | 61 | 247 | 0.0 | 1.7 | 0.00 | 0.00 | 0.00 | 76 | 4457.0 |
| 20260507020724 | 61 | 252 | 0.0 | 0.0 | 0.00 | 0.00 | 0.00 | 74 | 4456.6 |
| 20260507020220 | 61 | 252 | 0.0 | 0.0 | 0.00 | 0.00 | 0.00 | 74 | 4456.6 |
| 20260507015718 | 62 | 252 | 0.0 | 1.7 | 0.00 | 0.00 | 0.00 | 77 | 4456.6 |
| 20260507015215 | 62 | 227 | 0.0 | 0.0 | 0.00 | 0.00 | 0.00 | 76 | 4456.6 |
| 20260507014712 | 62 | 227 | 0.0 | 0.0 | 0.00 | 0.00 | 0.00 | 76 | 4457.0 |
| 20260507014208 | 63 | 64 | 0.0 | 0.0 | 0.00 | 0.00 | 0.00 | 73 | 4456.6 |
| 20260507013705 | 63 | 64 | 0.0 | 0.0 | 0.00 | 0.00 | 0.00 | 70 | 4456.6 |
| 20260507013202 | 63 | 64 | 0.0 | 0.0 | 0.00 | 0.00 | 0.00 | 68 | 4456.6 |
| 20260507012700 | 63 | 64 | 0.0 | 0.0 | 0.00 | 0.00 | 0.00 | 71 | 4456.6 |
| 20260507012155 | 63 | 65 | 0.0 | 0.0 | 0.00 | 0.00 | 0.00 | 71 | 4457.0 |
| 20260507011653 | 63 | 105 | 0.0 | 1.7 | 0.00 | 0.00 | 0.00 | 74 | 4457.0 |
| 20260507011149 | 63 | 186 | 0.0 | 0.0 | 0.00 | 0.00 | 0.00 | 72 | 4456.6 |
| 20260507010644 | 63 | 186 | 0.0 | 0.0 | 0.00 | 0.00 | 0.00 | 71 | 4457.0 |
| 20260507010140 | 63 | 186 | 0.0 | 0.0 | 0.00 | 0.00 | 0.00 | 73 | 4457.0 |
| 20260507005638 | 63 | 186 | 0.0 | 0.0 | 0.00 | 0.00 | 0.00 | 73 | 4457.0 |
| 20260507005133 | 63 | 244 | 2.6 | 2.6 | 0.00 | 0.00 | 0.00 | 71 | 4457.0 |
| 20260507004630 | 62 | 275 | 0.0 | 0.0 | 0.00 | 0.00 | 0.00 | 75 | 4457.0 |
| 20260507004128 | 62 | 292 | 0.0 | 0.0 | 0.00 | 0.00 | 0.00 | 77 | 4457.0 |
| 20260507003625 | 62 | 296 | 2.6 | 2.6 | 0.00 | 0.00 | 0.00 | 76 | 4457.0 |
| 20260507003120 | 62 | 263 | 0.9 | 1.7 | 0.00 | 0.00 | 0.00 | 77 | 4457.0 |
| 20260507002616 | 63 | 241 | 0.0 | 0.0 | 0.00 | 0.00 | 0.00 | 74 | 4457.0 |
| 20260507002112 | 64 | 242 | 0.0 | 0.0 | 0.00 | 0.00 | 0.00 | 69 | 4457.0 |
| 20260507001609 | 64 | 242 | 0.0 | 0.0 | 0.00 | 0.00 | 0.00 | 62 | 4457.0 |
| 20260507001106 | 64 | 242 | 0.0 | 0.0 | 0.00 | 0.00 | 0.00 | 65 | 4457.0 |
| 20260507000602 | 64 | 242 | 0.0 | 0.0 | 0.00 | 0.00 | 0.00 | 64 | 4457.0 |
| 20260507000058 | 66 | 241 | 0.9 | 1.7 | 0.00 | 0.00 | 0.00 | 62 | 4457.0 |
| 20260506235555 | 67 | 243 | 0.0 | 0.0 | 0.00 | 0.00 | 0.00 | 50 | 4457.0 |
| 20260506235050 | 67 | 241 | 0.0 | 0.0 | 0.00 | 0.00 | 0.00 | 49 | 4457.0 |
| 20260506234548 | 68 | 236 | 0.9 | 1.7 | 0.00 | 0.00 | 0.00 | 51 | 4457.0 |
| 20260506234045 | 68 | 236 | 0.0 | 0.0 | 0.00 | 0.00 | 0.00 | 42 | 4457.3 |
| 20260506233542 | 69 | 236 | 0.0 | 0.0 | 0.00 | 0.00 | 0.00 | 43 | 4457.3 |
| 20260506233039 | 69 | 236 | 0.0 | 0.0 | 0.00 | 0.00 | 0.00 | 39 | 4457.3 |
| 20260506232535 | 68 | 236 | 0.0 | 0.0 | 0.00 | 0.00 | 0.00 | 41 | 4457.3 |
| 20260506232030 | 68 | 236 | 0.0 | 0.0 | 0.00 | 0.00 | 0.00 | 42 | 4457.3 |
| 20260506231528 | 69 | 218 | 0.9 | 1.7 | 0.00 | 0.00 | 0.00 | 41 | 4457.3 |
| 20260506231026 | 69 | 258 | 2.6 | 4.3 | 0.00 | 0.00 | 0.00 | 42 | 4457.0 |
| 20260506230522 | 69 | 227 | 1.7 | 1.7 | 0.00 | 0.00 | 0.00 | 38 | 4457.3 |
| 20260506230020 | 68 | 209 | 0.9 | 1.7 | 0.00 | 0.00 | 0.00 | 38 | 4457.3 |
| 20260506225516 | 68 | 86 | 0.0 | 0.0 | 0.00 | 0.00 | 0.00 | 37 | 4457.3 |
| 20260506225012 | 66 | 108 | 1.7 | 1.7 | 0.00 | 0.00 | 0.00 | 40 | 4457.3 |
| 20260506224509 | 66 | 56 | 7.0 | 7.8 | 0.00 | 0.00 | 0.00 | 41 | 4457.3 |
| 20260506224006 | 67 | 61 | 3.5 | 4.3 | 0.00 | 0.00 | 0.00 | 43 | 4457.7 |